Regional Weather Roundup
Issued by NWS

Home | Current Version | Previous Version | Graphics & Text | Print | Product List | Glossary On
Versions: 1 2 3 4 5 6 7 8 9 10 11 12 13 14 15 16 17 18 19 20 21 22 23 24 25 26 27 28 29 30 31 32 33 34 35 36 37 38 39 40 41 42 43 44 45 46 47 48 49 50
408
ASUS44 KLIX 210310
RWRLA
LOUISIANA WEATHER ROUNDUP
NATIONAL WEATHER SERVICE NEW ORLEANS LA
900 PM CST THU NOV 20 2014

NOTE: "FAIR" INDICATES FEW OR NO CLOUDS BELOW 12,000 FEET WITH NO
      SIGNIFICANT WEATHER AND/OR OBSTRUCTIONS TO VISIBILITY.
      SKY/WX - SKY CONDITION AND SIGNIFICANT WEATHER.
      TMP - AIR TEMPERATURE.    DP   - DEWPOINT TEMPERATURE.
      RH  - RELATIVE HUMIDITY.  PRES - PRESSURE.
      HX  - HEAT INDEX.         WCI  - WIND CHILL INDEX.

*  THESE STATIONS ARE NOT NWS OR FAA STATIONS AND ARE NOT UNDER
   NWS QUALITY CONTROL.

LAZ040-048-061>063-065-066-069-210400-
SOUTHEAST LOUISIANA

CITY           SKY/WX    TMP DP  RH WIND       PRES   REMARKS
N.O. AUDUBON     N/A     56  47  72 MISG        N/A
N.O. INTL ARPT CLEAR     55  45  68 SE7       30.24R
N.O. LAKEFRONT CLEAR     54  44  69 S8        30.25R
N.O. DOWNTOWN* FAIR      57  43  58 S6        30.25R
SLIDELL        CLEAR     47  43  86 CALM      30.24S
BATON ROUGE    CLEAR     53  46  77 SE3       30.22R
BOOTHVILLE     CLEAR     56  49  77 E5        30.26S
BELLE CHASSE   PTCLDY    54  44  69 S6        30.24R
BOGALUSA*        N/A     47  42  81 CALM      30.25S
NEW ROADS*     FAIR      55  47  74 SE5       30.22R
GONZALES*      FAIR      54  47  77 CALM      30.23R
HAMMOND*       CLEAR     50  45  81 CALM      30.25S
HOUMA*         CLEAR     50  46  88 SE3       30.23S
PORT FOURCHON* CLEAR     63  48  59 SE12G18   30.26S

$$

LAZ041-044-053-054-210400-
SOUTHWEST LOUISIANA

CITY           SKY/WX    TMP DP  RH WIND       PRES   REMARKS
LAKE CHARLES   MOCLDY    58  51  78 SE9       30.17R
LAFAYETTE      CLEAR     56  48  74 SE5       30.21R
PATTERSON      CLEAR     55  46  71 SE7         N/A
SALT POINT       N/A     55  50  83 SE5       30.21R
NEW IBERIA     CLEAR     53  48  83 SE8       30.22R
CHENAULT AIRPK CLEAR     56  50  80 SE9       30.18R

$$

LAZ027-028-210400-
CENTRAL LOUISIANA

CITY           SKY/WX    TMP DP  RH WIND       PRES   REMARKS
FORT POLK      MOCLDY    57  51  79 S12       30.16R
ALEXANDRIA INT CLEAR     58  50  75 S6        30.16R
ALEXANDRIA     CLEAR     51  48  89 CALM      30.18R

$$

LAZ001-002-210400-
NORTHWEST LOUISIANA

CITY           SKY/WX    TMP DP  RH WIND       PRES   REMARKS
SHREVEPORT     CLOUDY    57  56  96 SE3       30.12R
BARKSDALE AFB  CLOUDY    56  56  97 S7        30.13R
DTN SHREVEPORT CLOUDY    57  54  89 SE6       30.12R

$$

LAZ014-016-210400-
NORTHEAST LOUISIANA

CITY           SKY/WX    TMP DP  RH WIND       PRES   REMARKS
MONROE         MOCLDY    52  50  93 CALM      30.18R
TALLULAH       PTCLDY    46  44  93 E3        30.19R

$$




USA.gov is the U.S. government's official web portal to all federal, state and local government web resources and services.